EW4431 Weather Reports


Display with metric or nautical units.
time (UTC)temp
F
wind
direction
speed
MPH
gust
MPH
rain 1hr
in
rain 24hr
in
rain mn
in
humidity
%
barometer
mb
20260903144543 87 97 1.0 4.0 0.00 0.00 0.00 55 1009.8
20260903143041 86 48 0.0 3.0 0.00 0.00 0.00 58 1009.7
20260903141540 84 110 1.0 2.0 0.00 0.00 0.00 60 1009.6
20260903140054 83 98 0.0 2.0 0.00 0.00 0.00 61 1009.5
20260903134510 83 91 0.0 2.0 0.00 0.00 0.00 61 1009.3
20260903133010 0 0.0 0.0 0.00 0.00 0.00 1009.1
20260903131508 0 0.0 0.0 0.00 0.00 0.00 1008.9
20260903130007 0 0.0 0.0 0.00 0.00 0.00 1008.8
20260903124506 0 0.0 0.0 0.00 0.00 0.00 1008.7
20260903123008 0 0.0 0.0 0.00 0.00 0.00 1008.5
20260903121503 0 0.0 0.0 0.00 0.00 0.00 1008.4
20260903120003 0 0.0 0.0 0.00 0.00 0.00 1008.3
20260903114503 0 0.0 0.0 0.00 0.00 0.00 1008.1
20260903113010 0 0.0 0.0 0.00 0.00 0.00 1008.1
20260903111533 0 0.0 0.0 0.00 0.00 0.00 1008.1
20260903110026 0 0.0 0.0 0.00 0.00 0.00 1008.0
20260903104600 81 44 0.0 1.0 0.00 0.00 0.00 57 1007.9
20260903103050 82 45 0.0 0.0 0.00 0.00 0.00 56 1007.8
20260903101548 83 42 0.0 1.0 0.00 0.00 0.00 55 1007.8
20260903100047 82 29 0.0 0.0 0.00 0.00 0.00 55 1008.0
20260903094546 82 29 0.0 0.0 0.00 0.00 0.00 53 1008.0
20260903093054 82 29 0.0 0.0 0.00 0.00 0.00 50 1008.0
20260903091542 82 28 0.0 0.0 0.00 0.00 0.00 50 1007.9
20260903090038 83 28 0.0 0.0 0.00 0.00 0.00 47 1007.7
20260903084537 84 28 0.0 3.0 0.00 0.00 0.00 45 1007.7
20260903083036 84 203 0.0 0.0 0.00 0.00 0.00 50 1007.7
20260903081501 85 203 0.0 0.0 0.00 0.00 0.00 46 1007.7
20260903080058 87 210 0.0 1.0 0.00 0.00 0.00 43 1007.7
20260903074600 88 236 0.0 0.0 0.00 0.00 0.00 35 1007.7
20260903073103 87 242 0.0 1.0 0.00 0.00 0.00 32 1007.7
20260903071553 87 214 0.0 1.0 0.00 0.00 0.00 31 1007.7
20260903070050 88 213 0.0 1.0 0.00 0.00 0.00 31 1007.6
20260903064548 88 217 0.0 1.0 0.00 0.00 0.00 35 1007.5
20260903063015 89 217 0.0 0.0 0.00 0.00 0.00 35 1007.4
20260903061511 90 217 0.0 0.0 0.00 0.00 0.00 35 1007.4
20260903060012 91 248 0.0 2.0 0.00 0.00 0.00 35 1007.2
20260903054509 90 243 0.0 4.0 0.00 0.00 0.00 39 1007.3
20260903053004 90 238 0.0 1.0 0.00 0.00 0.00 40 1007.4
20260903051503 90 233 0.0 1.0 0.00 0.00 0.00 40 1007.3
20260903050058 90 277 0.0 1.0 0.00 0.00 0.00 40 1007.2
20260903044600 91 284 0.0 0.0 0.00 0.00 0.00 38 1007.2
20260903043052 91 284 0.0 1.0 0.00 0.00 0.00 38 1007.3
20260903041550 91 266 0.0 1.0 0.00 0.00 0.00 38 1007.3
20260903040017 91 266 0.0 0.0 0.00 0.00 0.00 38 1007.1
20260903034515 91 266 0.0 0.0 0.00 0.00 0.00 36 1006.8
20260903033007 92 266 0.0 0.0 0.00 0.00 0.00 35 1006.7
20260903031506 93 266 0.0 2.0 0.00 0.00 0.00 34 1006.7
20260903030100 94 274 0.0 3.0 0.00 0.00 0.00 33 1006.5
20260903024600 94 240 0.0 2.0 0.00 0.00 0.00 35 1006.4
20260903023028 95 245 0.0 3.0 0.00 0.00 0.00 33 1006.3
20260903021535 95 267 0.0 3.0 0.00 0.00 0.00 32 1006.2
20260903020023 96 264 1.0 5.0 0.00 0.00 0.00 32 1006.0
20260903014520 96 217 0.0 2.0 0.00 0.00 0.00 32 1005.8
20260903013019 97 271 0.0 3.0 0.00 0.00 0.00 31 1005.8
20260903011515 98 258 0.0 3.0 0.00 0.00 0.00 30 1005.8
20260903010011 100 230 0.0 3.0 0.00 0.00 0.00 28 1005.7
20260903004516 100 264 0.0 1.0 0.00 0.00 0.00 29 1005.7
20260903003009 100 251 0.0 3.0 0.00 0.00 0.00 28 1005.8
20260903001513 101 228 0.0 4.0 0.00 0.00 0.00 28 1005.9
20260903000004 102 272 0.0 7.0 0.00 0.00 0.00 27 1005.9
20260902234502 101 239 0.0 12.0 0.00 0.00 0.00 27 1006.0
20260902233101 102 217 0.0 3.0 0.00 0.00 0.00 26 1006.2
20260902231600 102 264 0.0 3.0 0.00 0.00 0.00 26 1006.4
20260902224553 103 302 0.0 2.0 0.00 0.00 0.00 25 1006.6
20260902223050 103 255 0.0 3.0 0.00 0.00 0.00 26 1007.0
20260902221549 102 280 0.0 4.0 0.00 0.00 0.00 27 1007.1
20260902220044 102 242 0.0 3.0 0.00 0.00 0.00 28 1007.3
20260902214543 102 104 0.0 5.0 0.00 0.00 0.00 27 1007.5
20260902213039 101 242 2.0 6.0 0.00 0.00 0.00 27 1007.7
20260902211537 102 86 0.0 5.0 0.00 0.00 0.00 26 1007.8
20260902210049 102 208 0.0 5.0 0.00 0.00 0.00 29 1008.0
20260902204529 101 194 1.0 5.0 0.00 0.00 0.00 28 1008.4
20260902203026 101 261 1.0 8.0 0.00 0.00 0.00 29 1008.8
20260902201527 101 105 2.0 9.0 0.00 0.00 0.00 27 1009.0
20260902200026 101 217 0.0 5.0 0.00 0.00 0.00 29 1009.3
20260902194517 101 219 3.0 8.0 0.00 0.00 0.00 28 1009.5
20260902193012 100 210 2.0 11.0 0.00 0.00 0.00 30 1009.5
20260902191510 99 117 2.0 8.0 0.00 0.00 0.00 30 1010.0
20260902190004 99 245 0.0 6.0 0.00 0.00 0.00 31 1010.2
20260902184501 99 236 2.0 7.0 0.00 0.00 0.00 30 1010.4
20260902183114 99 229 3.0 8.0 0.00 0.00 0.00 30 1010.5
20260902181555 99 164 0.0 6.0 0.00 0.00 0.00 32 1010.8
20260902180054 99 249 1.0 8.0 0.00 0.00 0.00 31 1010.8
20260902174550 97 7 2.0 6.0 0.00 0.00 0.00 30 1010.9
20260902173048 96 155 1.0 6.0 0.00 0.00 0.00 35 1011.0
20260902171548 97 132 1.0 6.0 0.00 0.00 0.00 35 1011.0
20260902170047 95 146 1.0 4.0 0.00 0.00 0.00 42 1011.0
20260902164544 94 248 0.0 6.0 0.00 0.00 0.00 45 1011.1
20260902163053 93 250 0.0 4.0 0.00 0.00 0.00 45 1011.1
20260902161543 92 230 1.0 4.0 0.00 0.00 0.00 49 1011.2
20260902160042 91 182 0.0 7.0 0.00 0.00 0.00 50 1011.1
20260902154539 91 100 0.0 5.0 0.00 0.00 0.00 49 1011.0
20260902153040 90 105 0.0 5.0 0.00 0.00 0.00 50 1011.0
20260902151539 88 103 2.0 5.0 0.00 0.00 0.00 54 1010.9
20260902150038 87 100 2.0 8.0 0.00 0.00 0.00 55 1010.9